Hourly Data Report for July 03, 2022

MIRAMICHI RCS
NEW BRUNSWICK
Current Station Operator: ECCC - MSC

47°00'34.000" N
65°27'54.000" W
33.00 m
8100989
71744
ACQ

Download Data

Hourly Data (July 2022)
Hourly Data Report for July 3, 2022
TIME
LST
Temp Definition
°C
Dew Point Definition
°C
Rel Hum Definition
%
Precip. Amount Definition
mm

Wind Dir Definition
10's deg

Wind Spd Definition
km/h
Visibility Definition
km
Stn Press Definition
kPa
Hmdx Definition


Wind Chill Definition


Weather Definition


00:00 18.3 17.2 94 0.0 25 8   100.34     LegendNANA
01:00 17.7 15.8 89 0.0 25 9   100.37     LegendNANA
02:00 16.2 14.1 87 0.0 25 11   100.44     LegendNANA
03:00 15.3 12.8 85 0.0 25 9   100.49     LegendNANA
04:00 13.5 11.3 86 0.0 19 4   100.51     LegendNANA
05:00 13.3 11.8 91 0.0 24 5   100.56     LegendNANA
06:00 14.6 11.8 83 0.0 24 8   100.60     LegendNANA
07:00 16.5 12.4 77 0.0 27 7   100.63     LegendNANA
08:00 18.5 12.4 68 0.0 28 6   100.66     LegendNANA
09:00 20.3 12.2 60 0.0 29 7   100.67     LegendNANA
10:00 21.8 11.4 52 0.0 32 6   100.68     LegendNANA
11:00 22.7 11.2 48 0.0 24 9   100.73 25   LegendNANA
12:00 23.0 11.7 49 0.0 26 11   100.66 25   LegendNANA
13:00 23.0 12.0 50 0.0 32 3   100.60 25   LegendNANA
14:00 25.2 10.4 39 0.0 26 19   100.56 27   LegendNANA
15:00 24.1 9.0 38 0.0 24 19   100.55 25   LegendNANA
16:00 25.1 8.6 35 0.0 26 16   100.54 26   LegendNANA
17:00 25.1 8.0 34 0.0 26 13   100.51 26   LegendNANA
18:00 24.4 6.4 31 0.0 27 16   100.52     LegendNANA
19:00 23.4 6.2 33 0.0 27 14   100.55     LegendNANA
20:00 20.4 8.4 46 0.0 26 7   100.57     LegendNANA
21:00 17.0 9.6 62 0.0 26 5   100.59     LegendNANA
22:00 16.7 9.8 64 0.0 30 22   100.74     LegendNANA
23:00 14.6 11.4 81 0.0 28 8   100.72     LegendNANA

Notes on Data Quality.

Legend

  • E = Estimated
  • M = Missing
  • NA = Not Available*
  • [empty] = Indicates an unobserved value
Date modified: